CW9739 Weather Reports


time (UTC)temp
F
wind
direction
speed
knots
gust
knots
rain 1hr
in
rain 24hr
in
rain mn
in
humidity
%
barometer
mb
20260506031031 46 149 2.6 6.1 0.00 0.00 0.00 76 1014.3
20260506030052 46 149 2.6 6.1 0.00 0.00 0.00 76 1014.4
20260506025025 46 149 2.6 6.1 0.00 0.00 0.00 75 1014.4
20260506024048 46 149 2.6 6.1 0.00 0.00 0.00 75 1014.3
20260506023027 46 149 2.6 6.1 0.00 0.00 0.00 75 1014.3
20260506022041 46 149 2.6 6.1 0.00 0.00 0.00 75 1014.3
20260506021010 46 149 2.6 6.1 0.00 0.00 0.00 75 1014.3
20260506020032 46 149 2.6 6.1 0.00 0.00 0.00 75 1014.3
20260506015012 46 149 2.6 6.1 0.00 0.00 0.00 75 1014.4
20260506013956 46 149 2.6 6.1 0.00 0.00 0.00 74 1014.4
20260506012922 46 149 2.6 6.1 0.00 0.00 0.00 74 1014.4
20260506011913 46 149 2.6 6.1 0.00 0.00 0.00 74 1014.4
20260506010854 46 149 2.6 6.1 0.00 0.00 0.00 74 1014.5
20260506005830 46 149 2.6 6.1 0.00 0.00 0.00 74 1014.5
20260506004849 46 149 2.6 6.1 0.00 0.00 0.00 74 1014.4
20260506003847 46 149 2.6 6.1 0.00 0.00 0.00 74 1014.4
20260506002828 46 149 2.6 6.1 0.00 0.00 0.00 73 1014.5
20260506001820 46 149 2.6 6.1 0.00 0.00 0.00 73 1014.5
20260506000820 46 149 2.6 6.1 0.00 0.00 0.00 73 1014.5
20260505235753 46 149 2.6 6.1 0.00 0.00 0.00 73 1014.6
20260505234750 46 149 2.6 6.1 0.00 0.00 0.00 73 1014.6
20260505233812 47 149 2.6 6.1 0.00 0.00 0.00 73 1014.6
20260505232756 47 149 2.6 6.1 0.00 0.00 0.00 73 1014.6
20260505231802 47 149 2.6 6.1 0.00 0.00 0.00 73 1014.7
20260505230748 47 149 2.6 6.1 0.00 0.00 0.00 73 1014.7
20260505225734 47 344 2.6 6.1 0.00 0.00 0.00 75 1014.7
20260505224711 47 178 2.6 5.2 0.00 0.00 0.00 78 1014.7
20260505223708 48 173 2.6 7.8 0.00 0.00 0.00 78 1014.6
20260505222731 48 156 3.5 7.8 0.00 0.00 0.00 77 1014.6
20260505221745 48 169 2.6 7.0 0.00 0.00 0.00 76 1014.5
20260505220718 48 157 2.6 7.0 0.00 0.00 0.00 75 1014.5
20260505215737 48 177 3.5 7.8 0.00 0.00 0.00 75 1014.5
20260505214737 48 166 2.6 8.7 0.00 0.00 0.00 74 1014.5
20260505213712 48 170 2.6 9.6 0.00 0.00 0.00 75 1014.6
20260505212726 48 110 3.5 7.8 0.00 0.00 0.00 74 1014.5
20260505211710 49 159 2.6 7.0 0.00 0.00 0.00 73 1014.4
20260505210152 49 205 1.7 4.3 0.00 0.00 0.00 72 1014.4
20260505205840 49 155 2.6 7.8 0.00 0.00 0.00 72 1014.3
20260505204855 49 169 3.5 9.6 0.00 0.00 0.00 72 1014.3
20260505203831 49 140 3.5 9.6 0.00 0.00 0.00 72 1014.3
20260505202816 50 144 2.6 4.3 0.00 0.00 0.00 76 1014.2
20260505201954 50 177 2.6 7.8 0.00 0.00 0.00 77 1014.2
20260505200942 50 163 2.6 7.0 0.00 0.00 0.00 76 1014.0
20260505195921 51 94 2.6 6.1 0.00 0.00 0.00 77 1014.0
20260505194933 51 180 2.6 6.1 0.00 0.00 0.00 76 1014.0
20260505193955 51 116 2.6 9.6 0.00 0.00 0.00 76 1013.8
20260505193004 51 159 3.5 9.6 0.00 0.00 0.00 76 1013.8
20260505191942 51 110 3.5 7.8 0.00 0.00 0.00 75 1013.6
20260505190959 52 201 3.5 5.2 0.00 0.00 0.00 74 1013.5
20260505185945 52 176 3.5 7.8 0.00 0.00 0.00 73 1013.5
20260505184921 53 146 3.5 8.7 0.00 0.00 0.00 72 1013.4
20260505183907 53 148 3.5 8.7 0.00 0.00 0.00 71 1013.2
20260505182846 54 163 3.5 7.0 0.00 0.00 0.00 70 1013.0
20260505181839 55 132 1.7 5.2 0.00 0.00 0.00 63 1012.9
20260505180901 55 225 0.9 3.5 0.00 0.00 0.00 63 1012.9
20260505175925 55 192 1.7 5.2 0.00 0.00 0.00 62 1013.0
20260505174922 55 304 1.7 5.2 0.00 0.00 0.00 62 1013.1
20260505173857 56 178 1.7 5.2 0.00 0.00 0.00 62 1013.0
20260505172853 56 203 1.7 7.0 0.00 0.00 0.00 62 1012.9
20260505171856 56 21 2.6 7.8 0.00 0.00 0.00 60 1012.9
20260505170909 56 34 2.6 7.8 0.00 0.00 0.00 60 1012.9
20260505165904 57 186 1.7 5.2 0.00 0.00 0.00 60 1012.9
20260505164858 57 211 1.7 4.3 0.00 0.00 0.00 59 1012.9
20260505163912 57 196 1.7 4.3 0.00 0.00 0.00 60 1012.7
20260505162937 57 203 0.9 3.5 0.00 0.00 0.00 59 1012.7
20260505161954 57 122 1.7 4.3 0.00 0.00 0.00 57 1012.7
20260505161004 57 298 1.7 4.3 0.00 0.00 0.00 59 1012.8
20260505152945 57 250 1.7 3.5 0.00 0.00 0.00 59 1013.0
20260505151942 57 231 0.9 3.5 0.00 0.00 0.00 60 1013.0
20260505151004 57 165 0.9 3.5 0.00 0.00 0.00 59 1012.9
20260505122609 57 7 2.6 5.2 0.00 0.00 0.00 64 1013.1
20260505121615 57 276 2.6 6.1 0.00 0.00 0.00 63 1013.1
20260505120614 58 209 1.7 8.7 0.00 0.00 0.00 64 1013.2
20260505114539 57 266 2.6 5.2 0.00 0.00 0.00 64 1013.1
20260505113547 57 197 2.6 6.1 0.00 0.00 0.00 65 1013.2
20260505112605 57 249 2.6 6.1 0.00 0.00 0.00 65 1013.3
20260505110431 56 276 1.7 5.2 0.00 0.00 0.00 65 1013.4
20260505101206 56 327 2.6 7.8 0.00 0.00 0.00 70 1013.5
20260505100207 55 221 2.6 7.0 0.00 0.00 0.00 72 1013.6
20260505095153 55 228 2.6 6.1 0.00 0.00 0.00 70 1013.6
20260505094159 56 234 5.2 12.2 0.00 0.00 0.00 71 1013.6
20260505093206 55 252 2.6 12.2 0.00 0.00 0.00 72 1013.7
20260505092225 54 272 1.7 7.8 0.00 0.00 0.00 75 1013.6
20260505091239 53 69 2.6 7.8 0.00 0.00 0.00 75 1013.6
20260505090208 53 201 1.7 5.2 0.00 0.00 0.00 77 1013.6
20260505085227 52 255 1.7 3.5 0.00 0.00 0.00 78 1013.8
20260505084229 52 295 1.7 4.3 0.00 0.00 0.00 80 1013.9
20260505082129 50 192 2.6 5.2 0.00 0.00 0.00 82 1014.0
20260505081135 50 222 1.7 5.2 0.00 0.00 0.00 84 1014.1
20260505075056 49 330 1.7 9.6 0.00 0.00 0.00 86 1014.0
20260505074027 48 15 3.5 9.6 0.00 0.00 0.00 88 1014.0
20260505073032 47 225 4.3 7.0 0.00 0.00 0.00 90 1014.0
20260505072002 47 234 4.3 7.8 0.00 0.00 0.00 90 1014.0
20260505065820 46 250 3.5 5.2 0.00 0.00 0.00 90 1014.2
20260505064835 46 203 2.6 4.3 0.00 0.00 0.00 90 1014.2
20260505063816 46 191 2.6 5.2 0.00 0.00 0.00 90 1014.2
20260505062757 46 193 2.6 5.2 0.00 0.00 0.00 90 1014.2
20260505061805 45 277 1.7 3.5 0.00 0.00 0.00 90 1014.0
20260505060819 45 213 2.6 5.2 0.00 0.00 0.00 90 1014.1
20260505055831 45 255 2.6 5.2 0.00 0.00 0.00 90 1014.0
20260505053732 44 249 3.5 6.1 0.00 0.00 0.00 90 1014.2
20260505052712 44 225 3.5 7.0 0.00 0.00 0.00 90 1014.4
20260505051649 44 222 3.5 7.0 0.00 0.00 0.00 90 1014.2
20260505050617 44 202 3.5 5.2 0.00 0.00 0.00 90 1014.2
20260505041528 44 212 1.7 5.2 0.00 0.00 0.00 90 1013.9
20260505035428 44 235 3.5 7.0 0.00 0.00 0.00 89 1013.8
20260505034423 45 221 3.5 7.0 0.00 0.00 0.00 89 1014.0
20260505033424 45 219 3.5 5.2 0.00 0.00 0.00 90 1013.9
20260505032359 45 213 2.6 3.5 0.00 0.00 0.00 90 1014.0